Back to catalog

STARLINK-31122

AliveCommunicationsVLEO
NORAD 58774·PAYLOAD·🇺🇸 United States

Launched Jan 14, 2024 from Vandenberg Space Force Base

Loading…

Next Passes (next 24 hours)

TLE

FreshSource: CelesTrak SupGP

Epoch: Sep 15, 2026, 03:17 UTC

1 58774C 24011K   26258.13729167 -.00037153  00000+0 -10980-2 0  2586
2 58774  53.1581 212.6845 0001358  91.4394 137.0382 15.34400690    18

Track STARLINK-31122 in real time with AllMySat

Download on the App Store